Content
SEND FEEDBACK

Daily
Averages
Monthly
Summary
Italy

VERONA, ITALY


Home > Europe > Italy
Elevation: 298 feet     Latitude: 45 28N     Longitude: 010 55E

WEATHER
 
SELECT A DAY
Number of Records: 405,286;   Date Range: 7/1/96 - 11/27/14
 
SHARE

PRINT THIS DATA

[ ← Previous Day ]
WEATHER ALMANAC - JANUARY 23, 2013
[ Next Day → ]
[ °C ]   °F
Weather ElementAverageHighLow
Temperature39.9 °F48.2 °F (1:45 pm)30.2 °F (5:45 am)
Dewpoint34.5 °F39.2 °F (6:15 pm)28.4 °F (5:45 am)
Humidity80.8 %100 % (1:45 am)61 % (4:00 pm)
Barometer29.72 in29.79 in (10:00 am)29.68 in (9:15 pm)
Wind Speed7 mph16.1 mph (10:15 pm)
Weather ElementAverage
Visibility4.7 mi
Wind DirectionSSE (165.8 °)

Weather ElementTotal
Precipitation---
Heating Degree Days25.8 (Base 65)
Averaged from 53 records on January 23, 2013
WEATHER CONDITIONS BREAKOUT
WIND DIRECTION BREAKOUT
WEATHER BY HOUR - JANUARY 23, 2013
[ °C ]   °F
Local TimeTemperatureDewpointHumidityBarometerVisibilityWind DirectionWind SpeedGust SpeedPrecipitationEventsConditions
12:45 AM33.8 °F32.0 °F93 %29.71 in0.4 miWNW (300°)3.5 mphFogFog
1:00 AM34.0 °F32.0 °F89 %29.74 in0.0 miWNW (300°)3.5 mphFogPartial Fog
1:15 AM35.6 °F33.8 °F93 %29.71 in0.5 miWNW (300°)3.5 mphFogFog
1:45 AM33.8 °F33.8 °F100 %29.71 in0.5 miWNW (300°)2.3 mphFogFog
2:15 AM33.8 °F32.0 °F93 %29.71 in0.9 miNW (320°)5.8 mphMist
2:45 AM33.8 °F32.0 °F93 %29.71 in1.2 miNW (320°)4.6 mphMist
4:00 AM33.0 °F31.0 °F87 %29.73 in1.0 miNW (310°)3.5 mphMist
4:15 AM32.0 °F30.2 °F93 %29.71 in1.2 miNNW (340°)3.5 mphMist
4:45 AM32.0 °F30.2 °F93 %29.71 in1.2 miNW (310°)3.5 mphMist
5:15 AM32.0 °F30.2 °F93 %29.71 in1.2 miWNW (290°)3.5 mphMist
5:45 AM30.2 °F28.4 °F93 %29.71 in1.2 miSouth (190°)1.2 mphMist
6:15 AM30.2 °F28.4 °F93 %29.71 in0.7 miSW (220°)4.6 mphMist
6:45 AM30.2 °F30.2 °F100 %29.74 in0.9 miNNW (340°)5.8 mphMist
7:00 AM31.0 °F30.0 °F93 %29.76 in1.0 miNNW (340°)5.8 mphFogLight Fog
7:15 AM32.0 °F30.2 °F93 %29.74 in2.5 miNorth (350°)8.1 mphPartly Cloudy
7:45 AM32.0 °F30.2 °F93 %29.74 in2.2 miNorth (350°)3.5 mphPartly Cloudy
8:15 AM32.0 °F30.2 °F93 %29.74 in3.1 miNNW (340°)8.1 mphPartly Cloudy
8:45 AM33.8 °F30.2 °F87 %29.74 in6.2 miNorth (350°)5.8 mphPartly Cloudy
9:15 AM33.8 °F30.2 °F87 %29.77 in6.2 miNNW (330°)1.2 mphScattered Clouds
9:45 AM35.6 °F32.0 °F87 %29.77 in6.2 miNNW (330°)2.3 mphScattered Clouds
10:00 AM36.0 °F33.0 °F82 %29.79 in6.0 miNNW (330°)2.3 mphPartly Cloudy
10:15 AM41.0 °F33.8 °F76 %29.77 in6.2 miNorth (10°)4.6 mphScattered Clouds
10:45 AM41.0 °F35.6 °F81 %29.77 in6.2 miNNE (20°)3.5 mphScattered Clouds
11:15 AM41.0 °F35.6 °F81 %29.77 in6.2 miNE (40°)5.8 mphPartly Cloudy
11:45 AM42.8 °F35.6 °F76 %29.77 in6.2 miNNE (30°)3.5 mphPartly Cloudy
12:15 PM44.6 °F37.4 °F76 %29.77 in6.2 miCalmPartly Cloudy
12:45 PM44.6 °F35.6 °F71 %29.74 in6.2 miEast (100°)4.6 mphPartly Cloudy
1:00 PM45.0 °F36.0 °F62 %29.76 in12.0 miEast (100°)4.6 mphScattered Clouds
1:15 PM46.4 °F35.6 °F66 %29.74 in6.2 miESE (120°)5.8 mphPartly Cloudy
1:45 PM48.2 °F35.6 °F62 %29.74 in6.2 miENE (70°)11.5 mphPartly Cloudy
2:15 PM48.2 °F35.6 °F62 %29.71 in6.2 miEast (90°)13.8 mphScattered Clouds
2:45 PM46.4 °F35.6 °F66 %29.71 in6.2 miEast (80°)11.5 mphScattered Clouds
3:15 PM46.4 °F35.6 °F66 %29.71 in6.2 miEast (90°)13.8 mphScattered Clouds
3:45 PM46.4 °F37.4 °F71 %29.71 in6.2 miEast (100°)12.7 mphScattered Clouds
4:00 PM47.0 °F38.0 °F61 %29.73 in9.0 miEast (100°)12.7 mphMostly Cloudy
4:15 PM46.4 °F37.4 °F71 %29.71 in6.2 miEast (90°)12.7 mphScattered Clouds
4:45 PM44.6 °F37.4 °F76 %29.71 in6.2 miEast (80°)12.7 mphScattered Clouds
5:15 PM44.6 °F37.4 °F76 %29.71 in6.2 miEast (80°)13.8 mphScattered Clouds
5:45 PM44.6 °F37.4 °F76 %29.71 in6.2 miENE (70°)15.0 mphScattered Clouds
6:15 PM44.6 °F39.2 °F81 %29.71 in6.2 miENE (70°)12.7 mphLight Drizzle
6:45 PM44.6 °F37.4 °F76 %29.71 in6.2 miENE (70°)9.2 mphLight Drizzle
7:00 PM45.0 °F38.0 °F68 %29.74 in6.0 miENE (70°)9.2 mphRainLight Drizzle
7:15 PM44.6 °F37.4 °F76 %29.71 in6.2 miENE (70°)9.2 mphLight Drizzle
7:45 PM44.6 °F37.4 °F76 %29.71 in6.2 miENE (60°)6.9 mphRainLight Rain
8:15 PM44.6 °F39.2 °F81 %29.71 in6.2 miENE (60°)4.6 mphScattered Clouds
8:45 PM44.6 °F37.4 °F76 %29.71 in6.2 miENE (60°)4.6 mphRainLight Rain
9:15 PM44.6 °F37.4 °F76 %29.68 in6.2 miENE (70°)6.9 mphScattered Clouds
9:45 PM42.8 °F37.4 °F81 %29.68 in6.2 miEast (80°)8.1 mphScattered Clouds
10:00 PM44.0 °F37.0 °F70 %29.72 in6.0 miEast (80°)8.1 mphRainLight Rain
10:15 PM42.8 °F37.4 °F81 %29.68 in6.2 miEast (80°)16.1 mphLight Drizzle
10:45 PM42.8 °F37.4 °F81 %29.68 in6.2 miENE (70°)11.5 mphLight Drizzle
11:15 PM42.8 °F35.6 °F76 %29.68 in6.2 miENE (60°)11.5 mphScattered Clouds
11:45 PM42.8 °F37.4 °F81 %29.68 in6.2 miENE (60°)5.8 mphMostly Cloudy
Hourly data recorded from LIPX, located miles away from Verona, Italy







STORIES FROM OUR PARTNERS